Regional Weather Roundup
Issued by NWS

Home | Current Version | Previous Version | Text Only | Print | Product List | Glossary On
Versions: 1 2 3 4 5 6 7 8 9 10 11 12 13 14 15 16 17 18 19 20 21 22 23 24 25 26 27 28 29 30 31 32 33 34 35 36 37 38 39 40 41 42 43 44 45 46 47 48 49 50
064
ASUS43 KLSX 261810
RWRMO

WEATHER SUMMARY FOR MISSOURI
NATIONAL WEATHER SERVICE SPRINGFIELD MO
100 PM CDT TUE JUL 26 2016

NOTE: "FAIR" INDICATES FEW OR NO CLOUDS BELOW 12,000 FEET WITH NO
       SIGNIFICANT WEATHER AND/OR OBSTRUCTIONS TO VISIBILITY.
       CURRENT SKY AND/OR WEATHER CONDITIONS ARE NOT AVAILABLE FOR
       CHILLICOTHE AND FARMINGTON.

MOZ001>031-035>038-043-044-053-054-261900-
...NORTHERN AND WESTERN MISSOURI...

CITY           SKY/WX    TMP DP  RH WIND       PRES   REMARKS
KANSAS CTY INT PTSUNNY   84  66  54 E9G18     30.06F
6HR MIN TEMP:  70; 6HR MAX TEMP:  85;

KANSAS C DTWN  SUNNY     86  66  51 NE7       30.04F
6HR MIN TEMP:  73; 6HR MAX TEMP:  87;

LEE`S SUMMIT   CLOUDY    84  68  58 E10       30.06F
6HR MIN TEMP:  71; 6HR MAX TEMP:  84;

ST JOSEPH      PTSUNNY   85  67  54 VRB3      30.06S
6HR MIN TEMP:  66; 6HR MAX TEMP:  86;

CHILLICOTHE      N/A     86  64  47 VRB5      30.07F
6HR MIN TEMP:  68; 6HR MAX TEMP:  86;

KIRKSVILLE     MOSUNNY   85  64  49 VRB5      30.08F
6HR MIN TEMP:  67; 6HR MAX TEMP:  86;


$$
MOZ066>068-077>081-088>096-101>105-261900-
...SOUTHWEST MISSOURI...

CITY           SKY/WX    TMP DP  RH WIND       PRES   REMARKS
SPRINGFIELD    CLOUDY    86  72  62 NW3       30.02F HX  92
6HR MIN TEMP:  75; 6HR MAX TEMP:  89;

JOPLIN         PTSUNNY   85  75  72 N7        30.02F HX  93
6HR MIN TEMP:  74; 6HR MAX TEMP:  86;

BRANSON        PTSUNNY   88  73  62 CALM      30.03F HX  96

$$
MOZ032>034-039>042-045>050-055>058-069>072-261900-
...CENTRAL MISSOURI...

CITY           SKY/WX    TMP DP  RH WIND       PRES   REMARKS
COLUMBIA       MOSUNNY   85  71  63 NE8       30.04F HX  90
6HR MIN TEMP:  72; 6HR MAX TEMP:  86;

JEFFERSON CITY SUNNY     87  71  58 NE3       30.02F HX  93
6HR MIN TEMP:  72; 6HR MAX TEMP:  87;

ROLLA          LGT RAIN  82  75  79 NE6       30.02F
6HR MIN TEMP:  72; 6HR MAX TEMP:  85; 6HR PCP: TRACE;

SEDALIA        MOSUNNY   86  71  60 E8        30.06F HX  91
6HR MIN TEMP:  72; 6HR MAX TEMP:  86;

WHITEMAN AFB   PTSUNNY   83  71  66 E7        30.04F
OSAGE BEACH    MOSUNNY   84  73  69 VRB5      30.04F HX  90

$$
MOZ051-052-059>065-261900-
...EAST CENTRAL MISSOURI...

CITY           SKY/WX    TMP DP  RH WIND       PRES   REMARKS
ST LOUIS INTL  PTSUNNY   87  71  58 E3        30.02F HX  93
6HR MIN TEMP:  77; 6HR MAX TEMP:  88;

SPIRIT OF STL  PTSUNNY   87  75  67 N7        30.00F HX  96
6HR MIN TEMP:  76; 6HR MAX TEMP:  88;

ST CHARLES     MOSUNNY   86  75  69 CALM      30.01F HX  95
6HR MIN TEMP:  75; 6HR MAX TEMP:  87;


$$
MOZ072>076-082>087-097>100-106>115-261900-
...SOUTH CENTRAL AND SOUTHEAST MISSOURI...

CITY           SKY/WX    TMP DP  RH WIND       PRES   REMARKS
CAPE GIRARDEAU PTSUNNY   86  76  71 W5        29.99F HX  96
6HR MIN TEMP:  75; 6HR MAX TEMP:  89;

FARMINGTON     CLOUDY    77  73  87 NE3       30.05F
6HR MIN TEMP:  74; 6HR MAX TEMP:  85; 6HR PCP:  0.89;

POPLAR BLUFF   SUNNY     89  77  67 S5        29.98F HX 101
6HR MIN TEMP:  76; 6HR MAX TEMP:  89;

WEST PLAINS    LGT RAIN  74  70  87 CALM      30.05F
6HR MIN TEMP:  73; 6HR MAX TEMP:  86; 6HR PCP:  1.44;


$$




USA.gov is the U.S. government's official web portal to all federal, state and local government web resources and services.